Regional Weather Roundup
Issued by NWS

Home | Current Version | Previous Version | Text Only | Print | Product List | Glossary On
Versions: 1 2 3 4 5 6 7 8 9 10 11 12 13 14 15 16 17 18 19 20 21 22 23 24 25 26 27 28 29 30 31 32 33 34 35 36 37 38 39 40 41 42 43 44 45 46 47 48 49 50
000
ASUS45 KBOI 220910
RWRID

IDAHO REGIONAL WEATHER ROUNDUP
NATIONAL WEATHER SERVICE BOISE ID
200 AM MST WED FEB 22 2017

NOTE: "FAIR" INDICATES FEW OR NO CLOUDS BELOW 12000 FEET
WITH NO SIGNIFICANT WEATHER AND/OR OBSTRUCTIONS TO VISIBILITY

IDZ012-014-221000-
SOUTHWEST IDAHO


CITY           SKY/WX    TMP DP  RH WIND       PRES   REMARKS
BOISE          PTCLDY    36  28  73 CALM      30.05S
CALDWELL       PTCLDY    38  26  62 CALM      30.06R
MOUNTAIN HOME  MOCLDY    33  33 100 E3        30.05F
$$

IDZ016-017-221000-
SOUTHCENTRAL IDAHO


CITY           SKY/WX    TMP DP  RH WIND       PRES   REMARKS
BURLEY         CLOUDY    37  26  64 W14       30.03F WCI  28
JEROME           N/A    N/A N/A N/A MISG      30.05S
TWIN FALLS     CLOUDY    33  25  72 S10       30.05F WCI  25
$$

IDZ019>023-221000-
SOUTHEAST IDAHO


CITY           SKY/WX    TMP DP  RH WIND       PRES   REMARKS
IDAHO FALLS    PTCLDY    32  28  85 S18       29.98R WCI  20
POCATELLO      CLOUDY    35  27  72 SW16      30.02R WCI  25
REXBURG        CLOUDY    32  27  81 SW21G30   29.94R WCI  20
$$

IDZ006-010-011-018-031-032-221000-
CENTRAL IDAHO MOUNTAINS


CITY           SKY/WX    TMP DP  RH WIND       PRES   REMARKS
MCCALL         FLURRIES  30  25  81 CALM      29.94S
HAILEY         CLEAR     27  23  86 NW5       30.01S WCI  21
STANLEY          N/A     25  21  85 E6        29.95F WCI  18
SALMON         CLOUDY    37  21  52 W6        29.91R WCI  33
CHALLIS        PTCLDY    30  19  63 SW6       29.92S WCI  24
$$

IDZ002-004-006-007-026-221000-
NORTHERN IDAHO


CITY           SKY/WX    TMP DP  RH WIND       PRES   REMARKS
LEWISTON       CLOUDY    35  33  92 CALM      30.03R
LOWELL         NOT AVBL
COEUR D`ALENE  MIX PCPN  32  32 100 SW3       29.99R
MULLAN PASS    SNOW      23  22  96 CALM      29.84R VSB 1/2
$$



USA.gov is the U.S. government's official web portal to all federal, state and local government web resources and services.